COSMOS 249 DEB, 3695

Orbit data source: Space-Track

COSMOS 249 DEB, 3695 is space debris in LEO originally from a launch on Sun, 20 Oct 1968 UTC launched from the Tyuratam Missile And Space Complex (TTMTR). Debris objects in space refer to the collection of defunct objects orbiting the Earth. Examples of debris include non-operational satellites, rocket bodies, and fragments generated from explosions, collisions, or faulty payload assembly.

Loading next visibility...
Identifier
3695, 1968-091AL
Orbit
LEO
Country
Flag of CISCIS
Related business
Manufacturer
Unknown
Mission
Spacecraft
Bus & Motor
Unknown
Mass
Unknown
Launch date (UTC)
1968-10-20 (57 years ago)
Launch vehicle
Unknown
Launch site
Tyuratam Missile And Space Complex (TTMTR)
Object type
Payload
Rocket body
Debris
Shape & HBR
Unknown shape, 0.1 m
Radar Cross Section
Small (<0.1 m²)

Expand to show TLE details & history
Last TLE update: 22 hours ago

TLE from 22 hours ago
0 COSMOS 249 DEB
1 03695U 68091AL  26036.74751365  .00003387  00000-0  37242-2 0  9993
2 03695  62.2375 221.3218 0648642 205.6239 151.1252 13.06886726655017
Epoch: 2026-02-05T17:56Z
TLE epoch observation values (Epoch: 2026-02-05T17:56:25.179Z)
Latitude
-0.00002°
Longitude
176.32158°
Altitude
1,676.197 km
Speed
6.831 km/s
True Right ascension
14h 45m 17s
True Declination
0° 00' 00"
Sunlit
Object was in daylight at epoch
Visualization orbit readout
Latitude
Unknown
Longitude
Unknown
Altitude
Unknown
Speed
Unknown
Apparent Right ascension
Unknown
Apparent Declination
Unknown
Sunlit
N/A
Visualization observer readout
Local Sidereal Time
17:42:37
Azimuth
Unknown
Elevation
Unknown
Doppler factor
Unknown
Orbital elements
Apogee altitude
1,727.984 km
Perigee altitude
740.446 km
Semi-major axis
7,612.352 km
Eccentricity
0.06486
Inclination
62.2375°
RAAN
221.3218°
Arg. of periapsis
205.6239°
True anomaly
154.47412°
Mean anomaly
151.1252°
Eccentric anomaly
152.82267°
Mean motion
3.26787 °/min
Orbital period
110.16 mins
BSTAR
0.0037242
Loading maneuver chart data...
Computing Atmospheric mass density...

Documentation

Showing up to 5 results
|